BANDWAGON-4N (66305 NORAD) Tracking and Keplerian Element Data

This shows tracking and keplerian element data for the satellite.

Feedback or suggestion? Click here.




ElementValue
Catalog66305
NameBANDWAGON-4N
Epoch Orbit503
Epoch Day353.38340855
Epoch Year2025
RAAN3.4186
Inclination45.4072
Eccentricity0.000856
Argument of Perigee105.2052
Mean Anonmoly254.9782
Mean Motion15.20996744
Decay Rate0.00012784
L11 66305U 25248N 25353.38340855 .00012784 00000+0 57768-3 0 9992
L22 66305 45.4072 3.4186 0008560 105.2052 254.9782 15.20996744 5032



Live tracking and technical data element details for BANDWAGON-4N (NORAD 66305). BANDWAGON-4N can be tracked NOW for your location showing map with azimuth and elevation plus other details from your city location.







IsCatalogInMostPopularTable: catalog: 66305, numindb: 5
Update: records affected: 1



GetName: 66305 BANDWAGON-4N

Hit Count: updated at: Mon, 20 Apr 2026 10:24:46 GMT